Location: ??????
(55.2000°N, 38.3000°E)
Time: 02:12:54
(UTC+00:00)

SL-08 RB Rocket - Pass Details

Date: 15 November 2025
Orbit: 632 x 667 km, 97.8° (Epoch: 11 December)

Event Time Altitude Azimuth Distance (km) Brightness Sun altitude
Rises 02:58:11 0° 10° (N) 3,012 7.1 -17.0°
Reaches altitude 10° 03:00:35 10° 1° (N) 2,089 6.2 -16.6°
Maximum altitude 03:04:39 33° 298° (WNW) 1,109 4.3 -16.1°
Enters shadow 03:06:12 26° 260° (W) 1,295 4.6 -15.8°
